| time (UTC) | temp F | wind direction | speed MPH | gust MPH | rain 1hr in | rain 24hr in | rain mn in | humidity % | barometer mb |
| 20260504023024 | 64 | 90 | 0.0 | 0.0 | 0.00 | 0.00 | 0.00 | 74 | 1018.3 |
| 20260504022504 | 64 | 90 | 0.0 | 1.0 | 0.00 | 0.00 | 0.00 | 73 | 1018.3 |
| 20260504022010 | 64 | 90 | 0.0 | 1.0 | 0.00 | 0.00 | 0.00 | 73 | 1018.4 |
| 20260504021522 | 63 | 90 | 0.0 | 0.0 | 0.00 | 0.00 | 0.00 | 73 | 1018.3 |
| 20260504021008 | 63 | 90 | 0.0 | 0.0 | 0.00 | 0.00 | 0.00 | 75 | 1018.1 |
| 20260504020509 | 64 | 90 | 0.0 | 0.0 | 0.00 | 0.00 | 0.00 | 73 | 1018.0 |
| 20260504020020 | 64 | 90 | 0.0 | 0.0 | 0.00 | 0.00 | 0.00 | 73 | 1018.1 |
| 20260504015512 | 64 | 90 | 0.0 | 0.0 | 0.00 | 0.00 | 0.00 | 72 | 1018.1 |
| 20260504015016 | 64 | 90 | 0.0 | 0.0 | 0.00 | 0.00 | 0.00 | 71 | 1017.9 |
| 20260504014524 | 65 | 90 | 0.0 | 0.0 | 0.00 | 0.00 | 0.00 | 66 | 1017.8 |
| 20260504014010 | 65 | 90 | 0.0 | 0.0 | 0.00 | 0.00 | 0.00 | 67 | 1017.8 |
| 20260504013510 | 66 | 90 | 0.0 | 0.0 | 0.00 | 0.00 | 0.00 | 68 | 1017.8 |
| 20260504013015 | 67 | 90 | 0.0 | 0.0 | 0.00 | 0.00 | 0.00 | 68 | 1017.8 |
| 20260504012513 | 67 | 90 | 0.0 | 0.0 | 0.00 | 0.00 | 0.00 | 67 | 1017.8 |
| 20260504012010 | 67 | 90 | 0.0 | 1.0 | 0.00 | 0.00 | 0.00 | 65 | 1017.7 |
| 20260504011527 | 67 | 90 | 0.0 | 1.0 | 0.00 | 0.00 | 0.00 | 66 | 1017.7 |
| 20260504011010 | 67 | 101 | 0.0 | 1.0 | 0.00 | 0.00 | 0.00 | 64 | 1017.6 |
| 20260504010513 | 68 | 101 | 0.0 | 0.0 | 0.00 | 0.00 | 0.00 | 63 | 1017.6 |
| 20260504010028 | 68 | 101 | 0.0 | 0.0 | 0.00 | 0.00 | 0.00 | 60 | 1017.6 |
| 20260504005508 | 69 | 101 | 0.0 | 0.0 | 0.00 | 0.00 | 0.00 | 61 | 1017.7 |
| 20260504005008 | 70 | 101 | 0.0 | 0.0 | 0.00 | 0.00 | 0.00 | 60 | 1017.6 |
| 20260504004526 | 70 | 101 | 0.0 | 0.0 | 0.00 | 0.00 | 0.00 | 56 | 1017.7 |
| 20260504004008 | 71 | 101 | 0.0 | 0.0 | 0.00 | 0.00 | 0.00 | 56 | 1017.5 |
| 20260504003511 | 72 | 101 | 0.0 | 0.0 | 0.00 | 0.00 | 0.00 | 56 | 1017.7 |
| 20260504003026 | 73 | 101 | 0.0 | 0.0 | 0.00 | 0.00 | 0.00 | 52 | 1017.7 |
| 20260504002503 | 74 | 101 | 0.0 | 0.0 | 0.00 | 0.00 | 0.00 | 53 | 1017.7 |
| 20260504002010 | 75 | 100 | 0.0 | 0.0 | 0.00 | 0.00 | 0.00 | 52 | 1017.8 |
| 20260504001525 | 75 | 100 | 0.0 | 1.0 | 0.00 | 0.00 | 0.00 | 52 | 1017.8 |
| 20260504001006 | 75 | 100 | 0.0 | 1.0 | 0.00 | 0.00 | 0.00 | 48 | 1017.6 |
| 20260504000504 | 76 | 103 | 0.0 | 1.0 | 0.00 | 0.00 | 0.00 | 48 | 1017.7 |
| 20260504000037 | 76 | 220 | 0.0 | 1.0 | 0.00 | 0.00 | 0.00 | 46 | 1017.9 |
| 20260503235505 | 76 | 220 | 0.0 | 1.0 | 0.00 | 0.00 | 0.00 | 46 | 1017.8 |
| 20260503235003 | 77 | 220 | 0.0 | 3.0 | 0.00 | 0.00 | 0.00 | 45 | 1017.9 |
| 20260503234519 | 77 | 220 | 0.0 | 3.0 | 0.00 | 0.00 | 0.00 | 46 | 1017.8 |
| 20260503234004 | 77 | 87 | 0.0 | 1.0 | 0.00 | 0.00 | 0.00 | 46 | 1017.8 |
| 20260503233502 | 77 | 95 | 0.0 | 0.0 | 0.00 | 0.00 | 0.00 | 44 | 1017.8 |
| 20260503233021 | 77 | 96 | 0.0 | 0.0 | 0.00 | 0.00 | 0.00 | 45 | 1018.0 |
| 20260503232504 | 78 | 96 | 0.0 | 1.0 | 0.00 | 0.00 | 0.00 | 41 | 1017.9 |
| 20260503232007 | 78 | 96 | 0.0 | 1.0 | 0.00 | 0.00 | 0.00 | 41 | 1017.9 |
| 20260503231514 | 79 | 93 | 0.0 | 2.0 | 0.00 | 0.00 | 0.00 | 41 | 1018.0 |
| 20260503231004 | 79 | 92 | 0.0 | 2.0 | 0.00 | 0.00 | 0.00 | 39 | 1018.2 |
| 20260503230504 | 79 | 173 | 0.0 | 2.0 | 0.00 | 0.00 | 0.00 | 43 | 1018.0 |
| 20260503230009 | 79 | 86 | 0.0 | 1.0 | 0.00 | 0.00 | 0.00 | 43 | 1017.9 |
| 20260503225513 | 79 | 86 | 0.0 | 2.0 | 0.00 | 0.00 | 0.00 | 41 | 1018.0 |
| 20260503225006 | 80 | 85 | 0.0 | 2.0 | 0.00 | 0.00 | 0.00 | 39 | 1018.2 |
| 20260503224507 | 80 | 136 | 0.0 | 1.0 | 0.00 | 0.00 | 0.00 | 41 | 1018.3 |
| 20260503224014 | 80 | 136 | 0.0 | 1.0 | 0.00 | 0.00 | 0.00 | 38 | 1018.3 |
| 20260503223504 | 81 | 121 | 0.0 | 2.0 | 0.00 | 0.00 | 0.00 | 38 | 1018.3 |
| 20260503223008 | 81 | 143 | 0.0 | 3.0 | 0.00 | 0.00 | 0.00 | 38 | 1018.4 |
| 20260503222506 | 81 | 204 | 1.0 | 3.0 | 0.00 | 0.00 | 0.00 | 37 | 1018.5 |
| 20260503222004 | 81 | 230 | 0.0 | 5.0 | 0.00 | 0.00 | 0.00 | 38 | 1018.5 |
| 20260503221526 | 81 | 207 | 0.0 | 5.0 | 0.00 | 0.00 | 0.00 | 40 | 1018.6 |
| 20260503221009 | 81 | 215 | 1.0 | 5.0 | 0.00 | 0.00 | 0.00 | 41 | 1018.7 |
| 20260503220504 | 81 | 221 | 0.0 | 2.0 | 0.00 | 0.00 | 0.00 | 40 | 1018.9 |
| 20260503220027 | 82 | 74 | 0.0 | 2.0 | 0.00 | 0.00 | 0.00 | 37 | 1018.8 |
| 20260503215506 | 82 | 108 | 0.0 | 5.0 | 0.00 | 0.00 | 0.00 | 38 | 1018.7 |
| 20260503215003 | 82 | 259 | 1.0 | 5.0 | 0.00 | 0.00 | 0.00 | 38 | 1018.7 |
| 20260503214529 | 83 | 101 | 0.0 | 1.0 | 0.00 | 0.00 | 0.00 | 41 | 1018.7 |
| 20260503214003 | 83 | 84 | 0.0 | 1.0 | 0.00 | 0.00 | 0.00 | 38 | 1018.8 |
| 20260503213512 | 83 | 118 | 0.0 | 1.0 | 0.00 | 0.00 | 0.00 | 37 | 1018.8 |
| 20260503213020 | 82 | 125 | 0.0 | 2.0 | 0.00 | 0.00 | 0.00 | 38 | 1019.0 |
| 20260503212502 | 83 | 238 | 0.0 | 2.0 | 0.00 | 0.00 | 0.00 | 36 | 1019.2 |
| 20260503212011 | 83 | 195 | 0.0 | 2.0 | 0.00 | 0.00 | 0.00 | 36 | 1019.4 |
| 20260503211515 | 82 | 212 | 0.0 | 3.0 | 0.00 | 0.00 | 0.00 | 36 | 1019.5 |
| 20260503211004 | 82 | 202 | 0.0 | 3.0 | 0.00 | 0.00 | 0.00 | 36 | 1019.5 |
| 20260503210507 | 81 | 229 | 0.0 | 3.0 | 0.00 | 0.00 | 0.00 | 39 | 1019.6 |
| 20260503210036 | 81 | 241 | 0.0 | 4.0 | 0.00 | 0.00 | 0.00 | 40 | 1019.6 |
| 20260503205511 | 81 | 217 | 0.0 | 4.0 | 0.00 | 0.00 | 0.00 | 41 | 1019.6 |
| 20260503205007 | 81 | 29 | 2.0 | 4.0 | 0.00 | 0.00 | 0.00 | 36 | 1019.6 |
| 20260503204511 | 81 | 250 | 0.0 | 3.0 | 0.00 | 0.00 | 0.00 | 42 | 1019.8 |
| 20260503204010 | 80 | 250 | 0.0 | 3.0 | 0.00 | 0.00 | 0.00 | 42 | 1019.9 |
| 20260503203503 | 80 | 221 | 1.0 | 3.0 | 0.00 | 0.00 | 0.00 | 40 | 1020.0 |
| 20260503203028 | 80 | 115 | 0.0 | 3.0 | 0.00 | 0.00 | 0.00 | 41 | 1020.1 |
| 20260503202510 | 81 | 41 | 1.0 | 3.0 | 0.00 | 0.00 | 0.00 | 38 | 1020.2 |
| 20260503202005 | 82 | 279 | 0.0 | 2.0 | 0.00 | 0.00 | 0.00 | 40 | 1020.3 |
| 20260503201533 | 81 | 280 | 0.0 | 3.0 | 0.00 | 0.00 | 0.00 | 42 | 1020.4 |
| 20260503201004 | 82 | 252 | 1.0 | 3.0 | 0.00 | 0.00 | 0.00 | 38 | 1020.4 |
| 20260503200503 | 83 | 131 | 0.0 | 2.0 | 0.00 | 0.00 | 0.00 | 36 | 1020.6 |
| 20260503200023 | 84 | 209 | 0.0 | 4.0 | 0.00 | 0.00 | 0.00 | 41 | 1020.6 |
| 20260503195504 | 84 | 191 | 1.0 | 4.0 | 0.00 | 0.00 | 0.00 | 39 | 1020.7 |
| 20260503195010 | 83 | 226 | 0.0 | 2.0 | 0.00 | 0.00 | 0.00 | 38 | 1020.8 |
| 20260503194521 | 83 | 171 | 0.0 | 2.0 | 0.00 | 0.00 | 0.00 | 38 | 1020.9 |
| 20260503194003 | 84 | 79 | 0.0 | 3.0 | 0.00 | 0.00 | 0.00 | 36 | 1020.8 |
| 20260503193507 | 83 | 248 | 0.0 | 3.0 | 0.00 | 0.00 | 0.00 | 42 | 1020.9 |
| 20260503193017 | 83 | 25 | 0.0 | 3.0 | 0.00 | 0.00 | 0.00 | 38 | 1021.1 |
| 20260503192504 | 82 | 148 | 0.0 | 2.0 | 0.00 | 0.00 | 0.00 | 41 | 1021.2 |
| 20260503192008 | 81 | 242 | 1.0 | 4.0 | 0.00 | 0.00 | 0.00 | 37 | 1021.3 |
| 20260503191517 | 81 | 255 | 0.0 | 4.0 | 0.00 | 0.00 | 0.00 | 47 | 1021.2 |
| 20260503191012 | 82 | 15 | 2.0 | 4.0 | 0.00 | 0.00 | 0.00 | 36 | 1021.3 |
| 20260503190506 | 83 | 123 | 0.0 | 3.0 | 0.00 | 0.00 | 0.00 | 39 | 1021.5 |
| 20260503190012 | 83 | 152 | 0.0 | 3.0 | 0.00 | 0.00 | 0.00 | 39 | 1021.6 |
| 20260503185507 | 82 | 293 | 0.0 | 3.0 | 0.00 | 0.00 | 0.00 | 40 | 1021.5 |
| 20260503185011 | 82 | 233 | 0.0 | 4.0 | 0.00 | 0.00 | 0.00 | 41 | 1021.5 |
| 20260503184529 | 82 | 195 | 0.0 | 6.0 | 0.00 | 0.00 | 0.00 | 41 | 1021.6 |
| 20260503184011 | 81 | 248 | 0.0 | 6.0 | 0.00 | 0.00 | 0.00 | 43 | 1021.7 |
| 20260503183504 | 80 | 263 | 2.0 | 4.0 | 0.00 | 0.00 | 0.00 | 46 | 1021.8 |
| 20260503183027 | 80 | 63 | 1.0 | 4.0 | 0.00 | 0.00 | 0.00 | 41 | 1021.8 |
| 20260503182507 | 79 | 88 | 1.0 | 2.0 | 0.00 | 0.00 | 0.00 | 41 | 1021.8 |
| 20260503182007 | 79 | 53 | 0.0 | 4.0 | 0.00 | 0.00 | 0.00 | 44 | 1021.9 |
| 20260503181524 | 78 | 72 | 0.0 | 4.0 | 0.00 | 0.00 | 0.00 | 40 | 1022.1 |
| 20260503181004 | 79 | 32 | 2.0 | 4.0 | 0.00 | 0.00 | 0.00 | 39 | 1022.2 |
| 20260503180509 | 80 | 47 | 1.0 | 3.0 | 0.00 | 0.00 | 0.00 | 40 | 1022.2 |
| 20260503180024 | 80 | 155 | 0.0 | 3.0 | 0.00 | 0.00 | 0.00 | 43 | 1022.4 |
| 20260503175507 | 79 | 222 | 1.0 | 3.0 | 0.00 | 0.00 | 0.00 | 44 | 1022.5 |
| 20260503175013 | 79 | 78 | 1.0 | 3.0 | 0.00 | 0.00 | 0.00 | 42 | 1022.5 |
| 20260503174523 | 79 | 81 | 1.0 | 3.0 | 0.00 | 0.00 | 0.00 | 43 | 1022.7 |
| 20260503174004 | 80 | 47 | 2.0 | 3.0 | 0.00 | 0.00 | 0.00 | 40 | 1022.7 |
| 20260503173508 | 81 | 99 | 0.0 | 3.0 | 0.00 | 0.00 | 0.00 | 40 | 1022.9 |
| 20260503173020 | 81 | 267 | 0.0 | 3.0 | 0.00 | 0.00 | 0.00 | 41 | 1023.0 |
| 20260503172509 | 81 | 205 | 0.0 | 2.0 | 0.00 | 0.00 | 0.00 | 43 | 1023.0 |
| 20260503172013 | 81 | 294 | 0.0 | 4.0 | 0.00 | 0.00 | 0.00 | 44 | 1023.0 |
| 20260503171518 | 80 | 190 | 0.0 | 4.0 | 0.00 | 0.00 | 0.00 | 48 | 1023.1 |
| 20260503171010 | 79 | 203 | 0.0 | 2.0 | 0.00 | 0.00 | 0.00 | 45 | 1023.2 |
| 20260503170508 | 78 | 213 | 0.0 | 2.0 | 0.00 | 0.00 | 0.00 | 47 | 1023.2 |
| 20260503151003 | 69 | 203 | 0.0 | 3.0 | 0.00 | 0.00 | 0.00 | 66 | 1023.1 |
| 20260503150503 | 68 | 91 | 0.0 | 3.0 | 0.00 | 0.00 | 0.00 | 66 | 1023.0 |
| 20260503131003 | 54 | 324 | 0.0 | 0.0 | 0.00 | 0.01 | 0.00 | 97 | 1022.5 |
| 20260503130507 | 54 | 324 | 0.0 | 0.0 | 0.00 | 0.01 | 0.00 | 97 | 1022.4 |
| 20260503110510 | 51 | 325 | 0.0 | 0.0 | 0.00 | 0.01 | 0.00 | 95 | 1021.6 |
| 20260503090507 | 52 | 324 | 0.0 | 0.0 | 0.00 | 0.01 | 0.00 | 95 | 1021.0 |
| 20260503081543 | 54 | 324 | 0.0 | 0.0 | 0.00 | 0.01 | 0.00 | 95 | 1021.2 |
| 20260503081010 | 53 | 325 | 0.0 | 0.0 | 0.00 | 0.01 | 0.00 | 94 | 1021.3 |
| 20260503080507 | 53 | 325 | 0.0 | 0.0 | 0.00 | 0.01 | 0.00 | 95 | 1021.2 |
| 20260503072507 | 54 | 325 | 0.0 | 0.0 | 0.00 | 0.01 | 0.00 | 94 | 1021.3 |
| 20260503072011 | 54 | 325 | 0.0 | 0.0 | 0.00 | 0.01 | 0.00 | 94 | 1021.3 |
| 20260503071534 | 54 | 325 | 0.0 | 0.0 | 0.00 | 0.01 | 0.00 | 94 | 1021.3 |
| 20260503071009 | 54 | 325 | 0.0 | 0.0 | 0.00 | 0.01 | 0.00 | 94 | 1021.3 |
| 20260503070507 | 54 | 325 | 0.0 | 0.0 | 0.00 | 0.01 | 0.00 | 94 | 1021.4 |
| 20260503055003 | 55 | 325 | 0.0 | 0.0 | 0.00 | 0.01 | 0.00 | 93 | 1021.4 |
| 20260503054505 | 55 | 325 | 0.0 | 0.0 | 0.00 | 0.01 | 0.00 | 93 | 1021.5 |
| 20260503054004 | 55 | 325 | 0.0 | 0.0 | 0.00 | 0.01 | 0.00 | 93 | 1021.5 |
| 20260503053503 | 55 | 325 | 0.0 | 0.0 | 0.00 | 0.01 | 0.00 | 93 | 1021.5 |
| 20260503053027 | 55 | 325 | 0.0 | 0.0 | 0.00 | 0.01 | 0.00 | 93 | 1021.5 |
| 20260503052509 | 55 | 325 | 0.0 | 0.0 | 0.00 | 0.01 | 0.00 | 93 | 1021.3 |
| 20260503052006 | 56 | 325 | 0.0 | 0.0 | 0.00 | 0.01 | 0.00 | 93 | 1021.1 |
| 20260503051522 | 56 | 325 | 0.0 | 0.0 | 0.00 | 0.01 | 0.00 | 93 | 1021.1 |
| 20260503051005 | 56 | 325 | 0.0 | 0.0 | 0.00 | 0.01 | 0.00 | 93 | 1021.2 |
| 20260503050503 | 56 | 325 | 0.0 | 0.0 | 0.00 | 0.01 | 0.00 | 93 | 1021.2 |
| 20260503050020 | 56 | 325 | 0.0 | 0.0 | 0.00 | 0.01 | 0.00 | 92 | 1021.4 |
| 20260503045505 | 56 | 325 | 0.0 | 0.0 | 0.00 | 0.01 | 0.01 | 92 | 1021.3 |
| 20260503045012 | 56 | 325 | 0.0 | 0.0 | 0.00 | 0.01 | 0.01 | 92 | 1021.2 |
| 20260503044534 | 56 | 325 | 0.0 | 0.0 | 0.00 | 0.01 | 0.01 | 92 | 1021.1 |
| 20260503044004 | 56 | 325 | 0.0 | 0.0 | 0.00 | 0.01 | 0.01 | 91 | 1021.1 |
| 20260503043507 | 56 | 325 | 0.0 | 0.0 | 0.00 | 0.01 | 0.01 | 91 | 1021.1 |
| 20260503043016 | 57 | 325 | 0.0 | 0.0 | 0.00 | 0.01 | 0.01 | 91 | 1021.1 |
| 20260503042503 | 57 | 325 | 0.0 | 0.0 | 0.00 | 0.01 | 0.01 | 91 | 1021.0 |
| 20260503042009 | 57 | 325 | 0.0 | 0.0 | 0.00 | 0.01 | 0.01 | 91 | 1021.0 |
| 20260503041514 | 57 | 325 | 0.0 | 0.0 | 0.00 | 0.01 | 0.01 | 91 | 1021.0 |
| 20260503041007 | 57 | 325 | 0.0 | 0.0 | 0.00 | 0.01 | 0.01 | 92 | 1021.1 |
| 20260503040509 | 57 | 324 | 0.0 | 0.0 | 0.00 | 0.01 | 0.01 | 91 | 1021.0 |
| 20260503040010 | 57 | 324 | 0.0 | 0.0 | 0.00 | 0.01 | 0.01 | 91 | 1021.1 |
| 20260503035508 | 57 | 324 | 0.0 | 0.0 | 0.00 | 0.01 | 0.01 | 90 | 1021.1 |
| 20260503035007 | 57 | 324 | 0.0 | 0.0 | 0.00 | 0.01 | 0.01 | 90 | 1021.1 |
| 20260503034528 | 57 | 324 | 0.0 | 0.0 | 0.00 | 0.01 | 0.01 | 90 | 1021.0 |
| 20260503034004 | 57 | 324 | 0.0 | 0.0 | 0.00 | 0.01 | 0.01 | 90 | 1020.8 |
| 20260503033508 | 58 | 325 | 0.0 | 0.0 | 0.00 | 0.01 | 0.01 | 89 | 1020.7 |
| 20260503033023 | 58 | 324 | 0.0 | 0.0 | 0.00 | 0.01 | 0.01 | 89 | 1020.7 |
| 20260503032509 | 58 | 324 | 0.0 | 0.0 | 0.00 | 0.01 | 0.01 | 89 | 1020.7 |
| 20260503032006 | 58 | 325 | 0.0 | 0.0 | 0.00 | 0.01 | 0.01 | 89 | 1020.6 |
| 20260503031523 | 58 | 324 | 0.0 | 0.0 | 0.00 | 0.01 | 0.01 | 89 | 1020.5 |
| 20260503031004 | 58 | 325 | 0.0 | 0.0 | 0.00 | 0.01 | 0.01 | 88 | 1020.5 |
| 20260503030511 | 58 | 325 | 0.0 | 0.0 | 0.00 | 0.01 | 0.01 | 88 | 1020.6 |
| 20260503030019 | 59 | 324 | 0.0 | 0.0 | 0.00 | 0.01 | 0.01 | 87 | 1020.5 |
| 20260503025506 | 59 | 324 | 0.0 | 0.0 | 0.00 | 0.01 | 0.01 | 87 | 1020.4 |
| 20260503025008 | 59 | 325 | 0.0 | 0.0 | 0.00 | 0.01 | 0.01 | 87 | 1020.4 |
| 20260503024520 | 59 | 324 | 0.0 | 0.0 | 0.00 | 0.01 | 0.01 | 86 | 1020.6 |
| 20260503024003 | 59 | 324 | 0.0 | 0.0 | 0.00 | 0.01 | 0.01 | 86 | 1020.6 |
| 20260503023510 | 60 | 324 | 0.0 | 0.0 | 0.00 | 0.01 | 0.01 | 85 | 1020.6 |